User: anonymous   Login
Location: Bennemühlen
(52.5740°N, 9.7135°E)
Time: 17:25:56
(UTC+00:00)
Language:

Transit 2A Rocket - Orbit

View from above orbital plane
View from above orbital plane
View from above satellite
View from above satellite

Ground track
Ground track

The orbit is defined by the following mean orbital elements,

1 00047U          26049.21929166 +.00000000 +00000-0 +93266-4 0 00001
2 00047  66.6660   6.2964 0224220 226.6598 131.5632 14.45171809    01
Epoch (UTC): 18 February 2026 05:15:46
Eccentricity: 0.0224220
inclination: 66.6660°
perigee height: 582 km
apogee height: 901 km
right ascension of ascending node: 6.2964°
argument of perigee: 226.6598°
revolutions per day: 14.45171809
mean anomaly at epoch: 131.5632°

The dashed part of the orbit path shows where the satellite is in the earth's shadow,  

DLR